Beaufort MCAS, SC

6:15 PM EDT on April 28, 2017 (GMT -0400)
Beaufort Marine Corps Air Station

Weather History for KNBC - July, 2013

Change the Weather History Date:

Tuesday, July 30, 2013

  Actual Average Record
Temperature  
Mean Temperature 82 °F -  
Max Temperature 93 °F 91 °F 102 °F (2016)
Min Temperature 73 °F 73 °F 67 °F (1954)
Cooling Degree Days 17    
Growing Degree Days 32 (Base 50)    
Moisture  
Dew Point 73 °F    
Average Humidity 79    
Maximum Humidity 94    
Minimum Humidity 50    
Precipitation  
Precipitation 0.00 in - - ()
Sea Level Pressure  
Sea Level Pressure 30.14 in    
Wind  
Wind Speed 3 mph (West)    
Max Wind Speed 9 mph    
Max Gust Speed -    
Visibility 8 miles    
Events Fog    
Averages and records for this station are not official NWS values.
T = Trace of Precipitation, MM = Missing Value Source: NWS Daily Summary

Daily Weather History Graph

Daily Weather History Graph

Search for Another Location

Airport or City:

Trip Planner

Search our weather history database for the weather conditions in past years. The results will help you decide how hot, cold, wet, or windy it might be!

Date:

Astronomy

Jul. 30, 2013 Rise Set
Actual Time 6:36 AM EDT 8:22 PM EDT
Civil Twilight 6:09 AM EDT 8:48 PM EDT
Nautical Twilight 5:36 AM EDT 9:21 PM EDT
Astronomical Twilight 5:02 AM EDT 9:55 PM EDT
Moon 12:50 AM EDT (7/30) 2:41 PM EDT (7/30)
Length of Visible Light 14h 39m
Length of Day
13h 45m
Last Quarter, 41% of the Moon is Illuminated
Jul 30
Last Quarter
Aug 6
New
Aug 14
First Quarter
Aug 20
Full
Aug 28
Last Quarter

Hourly Weather History & Observations

Time (EDT) Temp. Heat Index Dew Point Humidity Pressure Visibility Wind Dir Wind Speed Gust Speed Precip Events Conditions
12:56 AM 75.0 °F - 72.0 °F 90% 30.14 in 10.0 mi WSW 5.8 mph - N/A   Clear
1:56 AM 75.0 °F - 73.0 °F 94% 30.14 in 10.0 mi WSW 4.6 mph - N/A   Clear
2:56 AM 75.0 °F - 72.0 °F 90% 30.14 in 10.0 mi Calm Calm - N/A   Clear
3:56 AM 73.9 °F - 72.0 °F 93% 30.13 in 9.0 mi West 3.5 mph - N/A   Clear
4:54 AM 73.4 °F - 71.6 °F 94% 30.12 in 1.5 mi Calm Calm - N/A   Clear
4:56 AM 73.0 °F - 71.1 °F 93% 30.12 in 1.0 mi Calm Calm - N/A   Clear
5:06 AM 73.0 °F - 71.1 °F 93% 30.12 in 1.2 mi Calm Calm - N/A   Partly Cloudy
5:09 AM 73.9 °F - 71.1 °F 91% 30.12 in 2.5 mi Calm Calm - N/A   Scattered Clouds
5:16 AM 73.9 °F - 72.0 °F 93% 30.12 in 5.0 mi Calm Calm - N/A   Scattered Clouds
5:56 AM 73.9 °F - 72.0 °F 93% 30.13 in 7.0 mi West 3.5 mph - N/A   Partly Cloudy
6:56 AM 75.0 °F - 73.0 °F 94% 30.16 in 10.0 mi Calm Calm - N/A Fog Shallow Fog
7:56 AM 77.0 °F - 73.9 °F 90% 30.17 in 10.0 mi WNW 3.5 mph - N/A   Mostly Cloudy
8:56 AM 81.0 °F 86.2 °F 73.9 °F 79% 30.18 in 10.0 mi NW 3.5 mph - N/A   Mostly Cloudy
9:06 AM 81.0 °F 86.2 °F 73.9 °F 79% 30.18 in 9.0 mi NNW 5.8 mph - N/A   Mostly Cloudy
9:56 AM 82.0 °F 88.6 °F 75.0 °F 79% 30.18 in 10.0 mi North 8.1 mph - N/A   Scattered Clouds
10:54 AM 84.2 °F 92.3 °F 75.2 °F 74% 30.17 in 8.0 mi North 4.6 mph - N/A   Mostly Cloudy
10:56 AM 86.0 °F 95.1 °F 75.0 °F 70% 30.18 in 10.0 mi North 5.8 mph - N/A   Scattered Clouds
11:27 AM 86.0 °F 93.8 °F 73.9 °F 67% 30.18 in 10.0 mi Calm Calm - N/A   Mostly Cloudy
11:56 AM 87.1 °F 95.4 °F 73.9 °F 65% 30.17 in 10.0 mi NNE 4.6 mph - N/A   Scattered Clouds
12:56 PM 89.1 °F 98.0 °F 73.9 °F 61% 30.16 in 10.0 mi Variable 3.5 mph - N/A   Mostly Cloudy
1:56 PM 88.0 °F 95.6 °F 73.0 °F 61% 30.15 in 10.0 mi Calm Calm - N/A   Mostly Cloudy
2:56 PM 91.0 °F 97.6 °F 71.1 °F 52% 30.13 in 10.0 mi Calm Calm - N/A   Mostly Cloudy
3:56 PM 91.9 °F 98.4 °F 71.1 °F 50% 30.12 in 10.0 mi NNW 4.6 mph - N/A   Mostly Cloudy
4:56 PM 88.0 °F 97.5 °F 75.0 °F 65% 30.11 in 10.0 mi SSE 4.6 mph - N/A   Mostly Cloudy
5:56 PM 88.0 °F 96.5 °F 73.9 °F 63% 30.11 in 10.0 mi ESE 9.2 mph - N/A   Mostly Cloudy
6:56 PM 86.0 °F 95.1 °F 75.0 °F 70% 30.11 in 10.0 mi SE 4.6 mph - N/A   Mostly Cloudy
7:56 PM 84.0 °F 92.6 °F 75.9 °F 76% 30.12 in 10.0 mi SSE 4.6 mph - N/A   Mostly Cloudy
8:56 PM 82.9 °F 90.8 °F 75.9 °F 79% 30.14 in 10.0 mi Calm Calm - N/A   Mostly Cloudy
9:56 PM 82.0 °F 89.4 °F 75.9 °F 82% 30.14 in 10.0 mi South 3.5 mph - N/A   Partly Cloudy
10:56 PM 81.0 °F 87.3 °F 75.9 °F 85% 30.14 in 10.0 mi SSW 4.6 mph - N/A   Clear
11:56 PM 80.1 °F 85.4 °F 75.9 °F 87% 30.14 in 10.0 mi SSW 3.5 mph - N/A   Clear